Waarnemingen

Advertentie
Mijn weer
Terschelling/Hoorn, Nederland (6251): temperatuur & dauwpunt: 09.11.2018 22:00:00 - 15.11.2018 22:00:00 (CET)Terschelling/Hoorn, Nederland (6251): temperatuur 5cm: 09.11.2018 22:00:00 - 15.11.2018 22:00:00 (CET)Terschelling/Hoorn, Nederland (6251): windsnelheid & windstoten: 09.11.2018 22:00:00 - 15.11.2018 22:00:00 (CET)Terschelling/Hoorn, Nederland (6251): windrichting: 09.11.2018 22:00:00 - 15.11.2018 22:00:00 (CET)Terschelling/Hoorn, Nederland (6251): luchtdruk: 09.11.2018 22:00:00 - 15.11.2018 22:00:00 (CET)Terschelling/Hoorn, Nederland (6251): zicht: 09.11.2018 22:00:00 - 15.11.2018 22:00:00 (CET)Terschelling/Hoorn, Nederland (6251): neerslag: 09.11.2018 22:00:00 - 15.11.2018 22:00:00 (CET)
Datum & Tijd tt [°C] td [°C] tt 5cm [°C] ff [km/u] ff [kn] fx [km/u] fx [kn] dd ppp [hPa] vv [km] rr [mm]
15.11.2018 22:00:00 5,6 4,9 4,7 11 6 18 10 ZO 1025,8 10 0,0
15.11.2018 21:00:00 6,6 5,8 5,7 11 6 25 14 ZO 1025,4 11 0,0
15.11.2018 20:00:00 7,1 6,1 6,3 18 10 22 12 OZO 1025,1 12 0,0
15.11.2018 19:00:00 6,9 6,4 5,9 14 8 18 10 OZO 1024,9 10 0,0
15.11.2018 18:00:00 7,3 6,9 6,2 11 6 14 8 OZO 1024,7 8 0,0
15.11.2018 17:00:00 7,2 6,8 6,4 11 6 18 10 ZO 1024,5 6 0,0
15.11.2018 16:00:00 8,1 7,6 8,2 11 6 22 12 ZO 1024,5 6 0,0
15.11.2018 15:00:00 8,5 7,6 9,1 18 10 22 12 OZO 1024,5 8 0,0
15.11.2018 14:00:00 8,8 7,6 9,4 14 8 18 10 ZO 1024,6 9 0,0
15.11.2018 13:00:00 8,2 7,3 9,0 14 8 22 12 ZZO 1024,8 7 0,0
15.11.2018 12:00:00 7,2 6,5 8,0 18 10 22 12 ZZO 1024,9 7 0,0
15.11.2018 11:00:00 6,4 5,9 7,0 14 8 25 14 ZZO 1025,3 7 0,0
15.11.2018 10:00:00 5,8 5,4 5,4 18 10 22 12 ZZO 1025,2 7 0,0
15.11.2018 09:00:00 5,5 5,2 4,9 14 8 22 12 ZZO 1025,2 8 0,0
15.11.2018 08:00:00 5,5 5,2 5,0 18 10 25 14 ZZO 1025,0 11 0,0
15.11.2018 07:00:00 6,0 5,6 5,3 18 10 25 14 ZZO 1024,6 12 0,0
15.11.2018 06:00:00 6,3 5,8 5,6 18 10 25 14 ZZO 1024,5 12 0,0
15.11.2018 05:00:00 6,6 6,2 5,8 18 10 29 16 ZZO 1024,3 12 0,0
15.11.2018 04:00:00 6,6 6,3 5,9 22 12 29 16 ZZO 1024,3 10 0,0
15.11.2018 03:00:00 7,0 6,7 6,3 18 10 25 14 ZZO 1024,5 9 0,0
15.11.2018 02:00:00 7,2 6,9 6,6 22 12 25 14 ZZO 1024,6 9 0,0
15.11.2018 01:00:00 7,4 7,0 6,6 18 10 25 14 ZZO 1024,8 9 0,0
15.11.2018 00:00:00 7,8 7,4 7,1 18 10 29 16 Z 1025,0 8 0,0
14.11.2018 23:00:00 8,2 7,6 7,6 22 12 32 18 Z 1025,1 10 0,0
14.11.2018 22:00:00 8,4 7,9 7,9 22 12 29 16 Z 1024,8 9 0,0
14.11.2018 21:00:00 8,8 8,1 8,2 22 12 29 16 Z 1025,0 10 0,0
14.11.2018 20:00:00 9,1 8,4 8,5 22 12 29 16 Z 1025,0 11 0,0
14.11.2018 19:00:00 9,3 8,6 8,9 22 12 32 18 Z 1025,1 11 0,0
14.11.2018 18:00:00 9,3 8,6 8,8 22 12 36 19 Z 1025,0 12 0,0
14.11.2018 17:00:00 9,6 8,8 9,2 29 16 36 19 Z 1024,8 14 0,0
14.11.2018 16:00:00 9,8 9,0 9,7 29 16 36 19 Z 1024,9 13 0,0
14.11.2018 15:00:00 9,8 8,9 9,6 29 16 40 21 Z 1025,0 12 0,0
14.11.2018 14:00:00 9,8 8,8 10,0 29 16 40 21 Z 1025,0 11 0,0
14.11.2018 13:00:00 9,9 8,9 10,5 32 18 36 19 Z 1025,3 12 0,0
14.11.2018 12:00:00 9,9 8,9 10,2 29 16 40 21 Z 1025,7 13 0,0
14.11.2018 11:00:00 9,3 8,7 8,9 29 16 36 19 Z 1026,1 11 0,0
14.11.2018 10:00:00 9,0 8,6 9,0 22 12 36 19 Z 1025,7 11 0,0
14.11.2018 09:00:00 8,8 8,4 8,3 25 14 32 18 Z 1025,7 10 0,0
14.11.2018 08:00:00 8,5 8,3 7,9 22 12 32 18 Z 1025,4 6 0,0
14.11.2018 07:00:00 8,6 8,6 8,1 22 12 32 18 ZZW 1025,4 6 0,0
14.11.2018 06:00:00 8,8 8,8 8,3 22 12 32 18 ZZW 1025,2 3,6 0,0
14.11.2018 05:00:00 9,1 9,1 8,8 25 14 29 16 Z 1025,0 5 0,0
14.11.2018 04:00:00 9,3 9,3 8,9 25 14 32 18 ZZW 1025,0 4,8 0,0
14.11.2018 03:00:00 9,3 9,1 8,8 22 12 29 16 ZZW 1025,5 8 0,0
14.11.2018 02:00:00 8,7 8,6 7,2 18 10 22 12 ZZW 1025,8 14 0,0
14.11.2018 01:00:00 7,8 7,8 6,3 11 6 18 10 ZZW 1025,9 12 0,0
14.11.2018 00:00:00 6,8 6,0 5,8 14 8 22 12 WZW 1025,6 15 0,0
13.11.2018 23:00:00 9,5 7,2 8,5 18 10 29 16 W 1025,4 23 0,0
13.11.2018 22:00:00 9,9 7,1 8,6 22 12 29 16 W 1024,9 24 0,0
13.11.2018 21:00:00 10,1 7,2 9,2 22 12 32 18 W 1024,5 22 0,0
13.11.2018 20:00:00 10,5 7,5 9,5 22 12 40 21 W 1023,8 21 0,0
13.11.2018 19:00:00 10,3 7,1 9,4 29 16 40 21 WZW 1023,3 25 0,0
13.11.2018 18:00:00 9,9 7,2 9,1 25 14 40 21 WZW 1022,5 21 0,0
13.11.2018 17:00:00 10,3 7,5 9,3 29 16 47 25 WZW 1021,7 20 0,0
13.11.2018 16:00:00 10,4 7,7 10,0 32 18 54 29 WZW 1020,7 22 0,0
13.11.2018 15:00:00 11,3 8,3 11,1 36 19 50 27 WZW 1019,7 17 0,0
13.11.2018 14:00:00 12,0 8,8 11,8 40 21 54 29 WZW 1018,9 20 0,0
13.11.2018 13:00:00 11,9 8,8 11,5 40 21 54 29 WZW 1018,0 19 0,0
13.11.2018 12:00:00 11,2 8,6 10,8 36 19 47 25 WZW 1017,4 16 0,0
13.11.2018 11:00:00 10,2 8,7 9,8 36 19 54 29 ZZW 1016,8 17 0,0
13.11.2018 10:00:00 10,1 8,8 9,5 43 23 54 29 ZW 1016,1 14 1,3
13.11.2018 09:00:00 9,5 9,1 9,1 22 12 47 25 ZZW 1015,4 7 1,6
13.11.2018 08:00:00 9,3 8,9 8,9 36 19 50 27 ZZW 1015,1 6 0,0
13.11.2018 07:00:00 8,9 8,6 8,5 32 18 50 27 Z 1014,3 6 0,1
13.11.2018 06:00:00 9,2 8,8 8,7 32 18 40 21 Z 1014,8 6 0,1
13.11.2018 05:00:00 9,2 8,9 9,0 32 18 43 23 ZZW 1015,0 7 0,1
13.11.2018 04:00:00 9,2 8,9 9,1 32 18 43 23 ZZW 1015,1 4,2 0,9
13.11.2018 03:00:00 9,3 8,8 8,9 32 18 40 21 Z 1015,3 8 0,0
13.11.2018 02:00:00 9,1 8,6 8,7 32 18 43 23 Z 1015,2 7 0,0
13.11.2018 01:00:00 9,2 8,8 8,8 32 18 40 21 Z 1014,9 8 0,0
13.11.2018 00:00:00 9,3 8,9 8,8 29 16 40 21 Z 1014,9 7 0,0
12.11.2018 23:00:00 9,4 9,0 8,9 29 16 40 21 Z 1014,9 9 0,0
12.11.2018 22:00:00 9,2 8,9 8,8 29 16 36 19 Z 1015,0 11 0,0
12.11.2018 21:00:00 9,4 9,0 8,9 29 16 32 18 Z 1014,8 12 0,0
12.11.2018 20:00:00 9,3 9,0 8,8 22 12 29 16 ZZW 1014,4 12 0,0
12.11.2018 19:00:00 9,4 9,3 8,9 18 10 25 14 Z 1014,1 9 0,0
12.11.2018 18:00:00 9,4 9,4 8,8 14 8 22 12 Z 1013,4 9 0,0
12.11.2018 17:00:00 9,7 9,7 9,4 18 10 25 14 Z 1012,7 8 0,0
12.11.2018 16:00:00 9,6 9,6 9,6 18 10 18 10 Z 1012,5 4,6 0,0
12.11.2018 15:00:00 9,5 9,5 9,9 14 8 18 10 Z 1012,1 0,6 0,0
12.11.2018 14:00:00 9,8 9,8 10,2 14 8 18 10 Z 1011,9 1,3 0,0
12.11.2018 13:00:00 10,2 10,2 10,4 11 6 18 10 Z 1011,9 4,2 0,4
12.11.2018 12:00:00 9,8 9,8 9,9 14 8 18 10 Z 1012,0 3,5 0,4
12.11.2018 11:00:00 9,9 9,9 10,0 11 6 18 10 Z 1011,8 4,1 0,1
12.11.2018 10:00:00 9,7 9,7 9,6 18 10 29 16 Z 1011,7 5 0,1
12.11.2018 09:00:00 9,4 9,4 9,3 14 8 32 18 ZZO 1011,5 4,3 0,2
12.11.2018 08:00:00 9,2 9,2 9,0 14 8 22 12 ZZO 1010,9 4,4 0,0
12.11.2018 07:00:00 9,2 9,2 9,0 18 10 25 14 ZZO 1010,7 4,2 0,0
12.11.2018 06:00:00 9,3 9,2 8,9 22 12 29 16 Z 1010,5 6 0,0
12.11.2018 05:00:00 9,2 9,1 8,9 22 12 29 16 Z 1010,7 6 0,0
12.11.2018 04:00:00 9,2 9,0 8,9 25 14 32 18 Z 1010,4 6 0,0
12.11.2018 03:00:00 9,1 8,9 8,7 22 12 29 16 Z 1010,1 7 0,0
12.11.2018 02:00:00 9,3 9,0 8,7 25 14 36 19 ZZW 1010,0 10 0,0
12.11.2018 01:00:00 9,6 9,1 9,2 29 16 40 21 ZZW 1009,4 13 0,0
12.11.2018 00:00:00 9,3 8,7 8,8 25 14 36 19 Z 1008,9 18 0,0
11.11.2018 23:00:00 9,3 8,6 8,7 25 14 32 18 Z 1008,4 24 0,0
11.11.2018 22:00:00 9,2 8,6 8,5 22 12 32 18 ZZW 1007,8 21 0,0
11.11.2018 21:00:00 9,3 8,4 8,7 25 14 36 19 ZZW 1006,8 24 0,0
11.11.2018 20:00:00 9,8 8,8 9,2 29 16 36 19 Z 1006,1 27 0,0
11.11.2018 19:00:00 9,5 8,4 8,9 25 14 40 21 Z 1005,0 30 0,0
11.11.2018 18:00:00 10,0 9,1 9,3 25 14 32 18 ZZW 1004,4 19 0,0
11.11.2018 17:00:00 10,3 8,5 9,6 29 16 50 27 Z 1003,8 21 0,2
11.11.2018 16:00:00 9,6 8,2 9,4 43 23 54 29 ZZW 1002,9 10 0,4
11.11.2018 15:00:00 10,6 9,6 10,5 32 18 40 21 Z 1002,8 22 0,0
11.11.2018 14:00:00 10,7 9,8 10,6 32 18 43 23 Z 1002,1 18 0,0
11.11.2018 13:00:00 10,8 9,9 10,9 32 18 43 23 Z 1001,9 21 0,0
11.11.2018 12:00:00 10,6 9,9 10,7 36 19 47 25 Z 1001,5 20 0,0
11.11.2018 11:00:00 10,5 9,9 10,4 36 19 47 25 Z 1001,3 17 0,0
11.11.2018 10:00:00 10,4 9,8 10,4 36 19 47 25 Z 1000,9 18 0,0
11.11.2018 09:00:00 10,1 9,6 9,8 36 19 47 25 Z 1000,3 15 0,0
11.11.2018 08:00:00 10,3 9,6 10,1 36 19 43 23 Z 999,8 11 0,0
11.11.2018 07:00:00 10,3 9,7 10,1 36 19 47 25 Z 999,6 20 0,0
11.11.2018 06:00:00 10,5 9,7 10,2 36 19 47 25 Z 999,4 23 0,0
11.11.2018 05:00:00 10,5 10,0 10,2 32 18 43 23 Z 999,4 21 0,1
11.11.2018 04:00:00 10,3 10,0 9,8 32 18 40 21 Z 999,6 12 0,2
11.11.2018 03:00:00 9,6 9,3 9,2 29 16 40 21 ZZO 999,8 13 0,0
11.11.2018 02:00:00 9,5 9,1 8,9 29 16 40 21 Z 999,8 13 0,0
11.11.2018 01:00:00 9,7 9,5 9,2 25 14 36 19 Z 1000,1 10 0,0
11.11.2018 00:00:00 10,1 10,1 9,9 25 14 40 21 Z 1000,3 7 0,0
10.11.2018 23:00:00 9,5 9,5 9,1 22 12 32 18 Z 1000,2 4,6 0,0
10.11.2018 22:00:00 9,9 9,9 9,4 25 14 32 18 Z 1000,2 7 0,0
10.11.2018 21:00:00 9,5 9,5 9,3 22 12 32 18 Z 999,8 8 0,0
10.11.2018 20:00:00 10,3 10,3 10,2 25 14 29 16 Z 999,7 11 0,1
10.11.2018 19:00:00 10,5 10,5 10,4 14 8 25 14 ZZO 999,7 12 0,1
10.11.2018 18:00:00 10,7 10,5 10,5 22 12 29 16 ZZO 999,5 17 0,1
10.11.2018 17:00:00 10,9 10,5 10,7 25 14 32 18 ZZO 999,8 15 0,1
10.11.2018 16:00:00 11,0 10,1 10,9 25 14 36 19 Z 1000,0 32 0,0
10.11.2018 15:00:00 10,7 10,0 10,7 25 14 36 19 Z 999,7 25 0,0
10.11.2018 14:00:00 10,8 10,1 10,9 32 18 43 23 Z 999,9 23 0,0
10.11.2018 13:00:00 10,7 10,4 10,7 32 18 43 23 Z 999,8 18 0,0
10.11.2018 12:00:00 10,5 10,2 10,7 32 18 43 23 Z 999,6 16 0,0
10.11.2018 11:00:00 10,3 10,2 10,2 29 16 43 23 Z 999,6 16 0,0
10.11.2018 10:00:00 10,1 10,0 10,1 36 19 58 31 Z 998,8 10 0,0
10.11.2018 09:00:00 10,4 10,1 10,2 43 23 58 31 Z 998,4 13 0,2
10.11.2018 08:00:00 10,1 9,9 10,0 32 18 54 29 ZZO 998,1 4,1 1,2
10.11.2018 07:00:00 10,2 9,5 10,0 36 19 50 27 ZZO 997,7 12 0,6
10.11.2018 06:00:00 10,2 9,2 10,0 36 19 47 25 ZZO 998,5 11 0,1
10.11.2018 05:00:00 10,2 9,0 9,7 40 21 47 25 ZO 998,8 19 0,0
10.11.2018 04:00:00 9,9 8,7 9,6 32 18 43 23 ZZO 1000,0 18 0,0
10.11.2018 03:00:00 9,5 8,7 9,1 29 16 36 19 ZO 1001,2 13 0,0
10.11.2018 02:00:00 9,2 8,5 9,0 25 14 32 18 ZO 1002,6 14 0,0
10.11.2018 01:00:00 9,5 8,5 9,2 25 14 36 19 ZZO 1003,4 15 0,0
10.11.2018 00:00:00 9,3 8,3 8,8 29 16 36 19 ZO 1004,0 14 0,0
09.11.2018 23:00:00 9,1 8,0 8,5 29 16 36 19 ZO 1005,0 13 0,0
09.11.2018 22:00:00 8,8 8,0 8,1 25 14 32 18 ZO 1006,1 10 0,0

tt = temperatuur
td = dauwpunt
tt 5cm = temperatuur 5cm
ff = windsnelheid
fx = windstoten
dd = windrichting
ppp = luchtdruk
vv = zicht
rr = neerslag

Weerstations in de omgeving